Weather Roundup
Issued by NWS

Home | Current Version | Previous Version | Text Only | Print | Product List | Glossary On
Versions: 1 2 3 4 5 6 7 8 9 10 11 12 13 14 15 16 17 18 19 20 21 22 23 24 25 26 27 28 29 30 31 32 33 34 35 36 37 38 39 40 41 42 43 44 45 46 47 48 49 50
000
NZUS93 KARX 250310
HRRWXR

CURRENT HOURLY OBSERVATIONS ACROSS
MUCH OF THE UPPER MISSISSIPPI VALLEY
NATIONAL WEATHER SERVICE LA CROSSE WI
1000 PM CDT SUN MAY 24 2015


...SOUTHEAST MINNESOTA...


CITY           SKY/WX    TMP DP  RH WIND       PRES   REMARKS
ROCHESTER      CLOUDY    59  58  96 SE13      29.82F FOG
ROCHESTER/MAYO CLOUDY    59  59 100 E9G16     29.82S
WINONA         CLOUDY    59  57  94 SE10      29.83F
AUSTIN         CLOUDY    61  59  94 SE8       29.79S FOG
ALBERT LEA     RAIN      63  63 100 E7        29.77F
DODGE CENTER   FOG       61  59  94 SE14      29.80F VSB 1
PRESTON        CLOUDY    58  57  96 SE9       29.82F FOG
OWATONNA       DRIZZLE   61  57  88 E9        29.79S
FARIBAULT      DRIZZLE   59  57  94 NE7       29.79F
$$

...ELSEWHERE IN MINNESOTA...


CITY           SKY/WX    TMP DP  RH WIND       PRES   REMARKS
MINNEAPOLIS    LGT RAIN  59  57  93 E13       29.82F FOG
INTNL FALLS    CLOUDY    60  49  66 CALM      29.90S
DULUTH         LGT RAIN  59  55  87 E5        29.93F
RED WING       DRIZZLE   57  57 100 E8        29.81F
REDWOOD FALLS  CLOUDY    59  57  93 NE7       29.78F
MANKATO        CLOUDY    59  57  94 E12       29.78S
WORTHINGTON    CLOUDY    59  55  88 NE7       29.77S
FAIRMONT       CLOUDY    61  55  82 E3        29.75S
$$

...SOUTHWEST WISCONSIN...


CITY           SKY/WX    TMP DP  RH WIND       PRES   REMARKS
LA CROSSE      CLOUDY    61  57  87 SE5       29.84F
PRAIRIE DU CHI CLOUDY    62  59  91 E8        29.81F
BOSCOBEL       CLOUDY    60  58  92 NE3       29.84F FOG
LONE ROCK      LGT RAIN  59  57  93 E10       29.87F FOG
PLATTEVILLE    CLOUDY    61  60  97 E13       29.85S
FORT MC COY    LGT RAIN  57  56  94 E6        29.88F
CAMP DOUGLAS   DRIZZLE   57  57 100 E9        29.88F
VIROQUA        CLOUDY    57  57 100 E13       29.85F
WIS DELLS      RAIN      56  54  93 E8        29.89F
$$

...ELSEWHERE IN WISCONSIN...


CITY           SKY/WX    TMP DP  RH WIND       PRES   REMARKS
MILWAUKEE      CLOUDY    55  52  89 SE6       29.92F
MADISON        CLOUDY    58  56  93 E5        29.89F FOG
GREEN BAY      LGT RAIN  56  55  97 NE9       29.98F FOG
EAU CLAIRE     CLOUDY    58  55  90 E10       29.86F
BLACK RVR FLS  LGT RAIN  57  57 100 E6        29.87F
MEDFORD        LGT RAIN  55  55  99 E10G17    29.93F
WAUSAU         LGT RAIN  56  55  97 E13       29.93F
WIS RAPIDS     LGT RAIN  56  53  90 E8        29.92F
MARSHFIELD     LGT RAIN  56  53  90 E12       29.92F
RICE LAKE      LGT RAIN  58  55  92 E9        29.90F
$$

...NORTHEAST IOWA...


CITY           SKY/WX    TMP DP  RH WIND       PRES   REMARKS
DECORAH        CLOUDY    61  61 100 E9        29.80F FOG
MASON CITY     CLOUDY    64  63  96 SE8       29.79S FOG
CHARLES CITY   CLOUDY    64  64 100 E8        29.79F
OELWEIN        CLOUDY    64  64 100 SE9       29.80S FOG
$$

...ELSEWHERE IN IOWA...


CITY           SKY/WX    TMP DP  RH WIND       PRES   REMARKS
DES MOINES     CLOUDY    68  63  84 SW8       29.79R
IOWA CITY      CLOUDY    67  66  97 SE7       29.82R
FORT DODGE     CLOUDY    63  61  94 CALM      29.78R
$$

...NORTHERN ILLINOIS...


CITY           SKY/WX    TMP DP  RH WIND       PRES   REMARKS
CHICAGO-OHARE  MOCLDY    64  61  90 SE7       29.92S
CHICAGO-MIDWAY MOCLDY    71  64  78 S7        29.93S
MOLINE         MOCLDY    70  66  87 S9        29.85R
ROCKFORD       CLOUDY    68  65  90 SE8       29.90F
PEORIA         CLOUDY    79  62  56 S12       29.88S
$$

NOTE: "FAIR" INDICATES FEW OR NO CLOUDS BELOW 12,000 FEET WITH NO
SIGNIFICANT WEATHER AND/OR OBSTRUCTIONS TO VISIBILITY. WIND
SPEEDS ARE IN MILES-PER-HOUR.



USA.gov is the U.S. government's official web portal to all federal, state and local government web resources and services.